Fort Bragg, NC

5:55 PM EST on November 24, 2017 (GMT -0500)
Simmons Army Air Field

Weather History for KFBG - July, 2014

Change the Weather History Date:

Tuesday, July 29, 2014

  Actual Average Record
Temperature  
Mean Temperature 76 °F -  
Max Temperature 85 °F 87 °F 99 °F (2011)
Min Temperature 68 °F 70 °F 68 °F (2014)
Cooling Degree Days 11    
Growing Degree Days 26 (Base 50)    
Moisture  
Dew Point 60 °F    
Average Humidity 61    
Maximum Humidity 84    
Minimum Humidity 40    
Precipitation  
Precipitation 0.00 in - - ()
Sea Level Pressure  
Sea Level Pressure 29.93 in    
Wind  
Wind Speed 4 mph (NNE)    
Max Wind Speed 9 mph    
Max Gust Speed -    
Visibility 10 miles    
Events      
Averages and records for this station are not official NWS values.
T = Trace of Precipitation, MM = Missing Value Source: NWS Daily Summary

Daily Weather History Graph

Daily Weather History Graph

Search for Another Location

Airport or City:

Trip Planner

Search our weather history database for the weather conditions in past years. The results will help you decide how hot, cold, wet, or windy it might be!

Date:

Astronomy

Jul. 29, 2014 Rise Set
Actual Time 6:22 AM EDT 8:21 PM EDT
Civil Twilight 5:54 AM EDT 8:49 PM EDT
Nautical Twilight 5:20 AM EDT 9:23 PM EDT
Astronomical Twilight 4:43 AM EDT 9:59 PM EDT
Moon 8:49 AM EDT (7/29) 9:41 PM EDT (7/29)
Length of Visible Light 14h 54m
Length of Day
13h 58m
Waxing Crescent, 7% of the Moon is Illuminated
Jul 29
Waxing Crescent
Aug 3
First Quarter
Aug 10
Full
Aug 17
Last Quarter
Aug 25
New

Hourly Weather History & Observations

Time (EDT) Temp. Heat Index Dew Point Humidity Pressure Visibility Wind Dir Wind Speed Gust Speed Precip Events Conditions
12:58 AM 75.6 °F - 60.3 °F 59% 29.86 in 10.0 mi NNW 4.6 mph - N/A   Mostly Cloudy
1:58 AM 73.4 °F - 60.4 °F 64% 29.85 in 10.0 mi North 3.5 mph - N/A   Partly Cloudy
2:58 AM 71.8 °F - 60.1 °F 67% 29.86 in 10.0 mi North 2.3 mph - N/A   Partly Cloudy
3:58 AM 70.7 °F - 58.5 °F 65% 29.87 in 10.0 mi North 5.8 mph - N/A   Clear
4:58 AM 69.1 °F - 59.0 °F 70% 29.89 in 10.0 mi NNW 3.5 mph - N/A   Scattered Clouds
5:58 AM 68.4 °F - 59.7 °F 74% 29.91 in 10.0 mi North 3.5 mph - N/A   Partly Cloudy
6:58 AM 68.4 °F - 59.4 °F 73% 29.94 in 10.0 mi North 5.8 mph - N/A   Scattered Clouds
7:58 AM 69.8 °F - 59.5 °F 70% 29.94 in 10.0 mi NNE 4.6 mph - N/A   Partly Cloudy
8:58 AM 72.0 °F - 60.1 °F 66% 29.94 in 10.0 mi NNE 9.2 mph - N/A   Partly Cloudy
9:58 AM 74.1 °F - 59.7 °F 61% 29.96 in 10.0 mi NNE 5.8 mph - N/A   Partly Cloudy
10:58 AM 77.0 °F - 60.6 °F 57% 29.96 in 10.0 mi East 5.8 mph - N/A   Clear
11:58 AM 78.8 °F - 59.4 °F 51% 29.96 in 10.0 mi NE 5.8 mph - N/A   Clear
12:58 PM 81.0 °F 81.3 °F 59.2 °F 47% 29.94 in 10.0 mi Calm Calm - N/A   Clear
1:58 PM 81.7 °F 81.8 °F 58.5 °F 45% 29.94 in 10.0 mi Variable 2.3 mph - N/A   Partly Cloudy
2:58 PM 84.9 °F 84.2 °F 57.9 °F 40% 29.92 in 10.0 mi Calm Calm - N/A   Clear
3:58 PM 82.4 °F 82.6 °F 59.7 °F 46% 29.91 in 10.0 mi NNE 5.8 mph - N/A   Partly Cloudy
4:58 PM 83.7 °F 83.9 °F 61.0 °F 46% 29.91 in 10.0 mi NNE 5.8 mph - 0.00 in   Clear
5:58 PM 81.3 °F 81.7 °F 59.5 °F 47% 29.93 in 10.0 mi NNE 3.5 mph - N/A   Clear
6:58 PM 80.4 °F 81.1 °F 59.5 °F 49% 29.94 in 10.0 mi ENE 4.6 mph - N/A   Scattered Clouds
7:58 PM 78.6 °F - 60.3 °F 53% 29.95 in 10.0 mi ENE 4.6 mph - N/A   Clear
8:58 PM 74.5 °F - 61.9 °F 65% 29.96 in 10.0 mi East 3.5 mph - N/A   Clear
9:58 PM 72.5 °F - 63.7 °F 74% 29.98 in 10.0 mi Calm Calm - N/A   Clear
10:58 PM 69.4 °F - 63.9 °F 82% 29.99 in 10.0 mi Calm Calm - N/A   Clear
11:58 PM 68.2 °F - 63.1 °F 84% 30.00 in 10.0 mi Calm Calm - N/A   Clear